Cleveland, OH

8:21 AM EST on February 26, 2017 (GMT -0500)
Burke Lakefront

Weather History for KBKL - January, 2013

Change the Weather History Date:

Wednesday, January 2, 2013

  Actual Average Record
Temperature  
Mean Temperature 19 °F -  
Max Temperature 21 °F 36 °F 63 °F (2005)
Min Temperature 17 °F 25 °F 8 °F (2001)
Degree Days  
Heating Degree Days 46    
Moisture  
Dew Point 13 °F    
Average Humidity 74    
Maximum Humidity 85    
Minimum Humidity 65    
Precipitation  
Precipitation 0.00 in - - ()
Sea Level Pressure  
Sea Level Pressure 30.18 in    
Wind  
Wind Speed 10 mph (SW)    
Max Wind Speed 13 mph    
Max Gust Speed -    
Visibility 10 miles    
Events      
Averages and records for this station are not official NWS values.
T = Trace of Precipitation, MM = Missing Value Source: NWS Daily Summary

Daily Weather History Graph

Daily Weather History Graph

Search for Another Location

Airport or City:

Trip Planner

Search our weather history database for the weather conditions in past years. The results will help you decide how hot, cold, wet, or windy it might be!

Date:

Astronomy

Jan. 02, 2013 Rise Set
Actual Time 7:53 AM EST 5:08 PM EST
Civil Twilight 7:22 AM EST 5:39 PM EST
Nautical Twilight 6:47 AM EST 6:14 PM EST
Astronomical Twilight 6:13 AM EST 6:48 PM EST
Moon 10:44 PM EST (1/2) 10:30 AM EST (1/2)
Length of Visible Light 10h 17m
Length of Day
9h 15m
Waning Gibbous, 75% of the Moon is Illuminated
Jan 2
Waning Gibbous
Jan 4
Last Quarter
Jan 11
New
Jan 18
First Quarter
Jan 26
Full

Hourly Weather History & Observations

Time (EST) Temp. Windchill Dew Point Humidity Pressure Visibility Wind Dir Wind Speed Gust Speed Precip Events Conditions
12:53 AM 21.9 °F 11.7 °F 12.9 °F 68% 30.10 in 10.0 mi SW 9.2 mph - N/A   Overcast
1:53 AM 21.0 °F 9.9 °F 12.9 °F 71% 30.11 in 10.0 mi SW 10.4 mph - N/A   Overcast
2:17 AM 21.2 °F 10.1 °F 12.2 °F 68% 30.08 in 10.0 mi SW 10.4 mph - N/A   Overcast
2:36 AM 21.2 °F 8.9 °F 12.2 °F 68% 30.09 in 10.0 mi SW 12.7 mph - N/A   Overcast
2:53 AM 21.0 °F 8.6 °F 10.9 °F 65% 30.12 in 10.0 mi SW 12.7 mph - N/A   Overcast
3:53 AM 18.0 °F 6.9 °F 10.0 °F 71% 30.11 in 10.0 mi SW 9.2 mph - N/A   Scattered Clouds
4:53 AM 18.0 °F 4.8 °F 12.0 °F 78% 30.13 in 10.0 mi SW 12.7 mph - N/A   Mostly Cloudy
5:53 AM 17.1 °F 5.0 °F 12.0 °F 81% 30.14 in 10.0 mi SW 10.4 mph - N/A   Mostly Cloudy
7:53 AM 19.0 °F 6.8 °F 14.0 °F 81% 30.17 in 10.0 mi SW 11.5 mph - N/A   Overcast
8:53 AM 19.0 °F 9.0 °F 14.0 °F 81% 30.16 in 10.0 mi SW 8.1 mph - N/A   Overcast
9:53 AM 19.9 °F 9.3 °F 15.1 °F 81% 30.18 in 10.0 mi SW 9.2 mph - N/A   Overcast
10:53 AM 19.9 °F 8.6 °F 16.0 °F 85% 30.21 in 10.0 mi SW 10.4 mph - N/A   Overcast
11:53 AM 21.0 °F 8.6 °F 15.1 °F 78% 30.22 in 10.0 mi SW 12.7 mph - N/A   Overcast
12:53 PM 21.0 °F 9.9 °F 16.0 °F 81% 30.20 in 10.0 mi SW 10.4 mph - N/A   Overcast
1:53 PM 21.9 °F 12.5 °F 16.0 °F 78% 30.21 in 9.0 mi SSW 8.1 mph - N/A   Overcast
2:53 PM 21.9 °F 11.7 °F 15.1 °F 75% 30.20 in 10.0 mi SW 9.2 mph - N/A   Overcast
3:53 PM 21.9 °F 11.0 °F 14.0 °F 72% 30.23 in 10.0 mi SW 10.4 mph - N/A   Overcast
4:53 PM 21.9 °F 14.5 °F 12.9 °F 68% 30.22 in 10.0 mi Variable 5.8 mph - N/A   Overcast
5:53 PM 21.9 °F 14.5 °F 12.9 °F 68% 30.23 in 10.0 mi SSW 5.8 mph - N/A   Overcast
6:53 PM 21.0 °F 11.4 °F 12.9 °F 71% 30.25 in 10.0 mi WSW 8.1 mph - N/A   Overcast
7:53 PM 21.0 °F 9.9 °F 12.9 °F 71% 30.25 in 10.0 mi SW 10.4 mph - N/A   Overcast
8:53 PM 18.0 °F 6.9 °F 10.9 °F 74% 30.25 in 10.0 mi SW 9.2 mph - N/A   Mostly Cloudy
9:53 PM 21.0 °F 11.4 °F 12.9 °F 71% 30.25 in 10.0 mi South 8.1 mph - N/A   Overcast
10:53 PM 19.9 °F 10.1 °F 14.0 °F 78% 30.24 in 10.0 mi South 8.1 mph - N/A   Overcast
11:53 PM 21.9 °F 10.4 °F 15.1 °F 75% 30.23 in 10.0 mi SSW 11.5 mph - N/A   Overcast